Wahoo, NE

11:08 AM CST on December 07, 2016 (GMT -0600)
Wahoo Municipal

Weather History for KAHQ - February, 2015

Change the Weather History Date:

Wednesday, February 11, 2015

  Actual Average Record
Temperature  
Mean Temperature 28 °F -  
Max Temperature 38 °F 36 °F 63 °F (1976)
Min Temperature 16 °F 15 °F -18 °F (1981)
Degree Days  
Heating Degree Days 36    
Moisture  
Dew Point 19 °F    
Average Humidity 66    
Maximum Humidity 93    
Minimum Humidity 51    
Precipitation  
Precipitation 0.00 in - - ()
Sea Level Pressure  
Sea Level Pressure 30.36 in    
Wind  
Wind Speed 19 mph (NNW)    
Max Wind Speed 28 mph    
Max Gust Speed 37 mph    
Visibility 10 miles    
Events      
Averages and records for this station are not official NWS values.
T = Trace of Precipitation, MM = Missing Value Source: NWS Daily Summary

Daily Weather History Graph

Daily Weather History Graph

Search for Another Location

Airport or City:

Trip Planner

Search our weather history database for the weather conditions in past years. The results will help you decide how hot, cold, wet, or windy it might be!

Date:

Astronomy

Feb. 11, 2015 Rise Set
Actual Time 7:26 AM CST 5:55 PM CST
Civil Twilight 6:57 AM CST 6:23 PM CST
Nautical Twilight 6:25 AM CST 6:56 PM CST
Astronomical Twilight 5:53 AM CST 7:28 PM CST
Moon 12:30 AM CST (2/11) 11:12 AM CST (2/11)
Length of Visible Light 11h 25m
Length of Day
10h 28m
Waning Gibbous, 54% of the Moon is Illuminated
Feb 11
Waning Gibbous
Feb 11
Last Quarter
Feb 18
New
Feb 25
First Quarter
Mar 5
Full

Hourly Weather History & Observations

Time (CST) Temp. Windchill Dew Point Humidity Pressure Visibility Wind Dir Wind Speed Gust Speed Precip Events Conditions
12:15 AM 37.4 °F 30.3 °F 35.6 °F 93% 30.12 in 7.0 mi NNW 10.4 mph - N/A   Overcast
12:35 AM 38.7 °F 29.5 °F 35.6 °F 89% 30.13 in 10.0 mi NNW 17.3 mph 27.6 mph N/A   Overcast
12:55 AM 38.3 °F 30.1 °F 34.3 °F 86% 30.14 in 10.0 mi NNW 13.8 mph - N/A   Overcast
1:15 AM 36.9 °F 25.9 °F 32.5 °F 84% 30.16 in 10.0 mi North 21.9 mph 31.1 mph N/A   Overcast
1:35 AM 35.1 °F 22.7 °F 29.1 °F 79% 30.17 in 10.0 mi NNW 25.3 mph 36.8 mph N/A   Overcast
1:55 AM 34.3 °F 21.5 °F 26.8 °F 74% 30.19 in 10.0 mi NNW 26.5 mph 34.5 mph N/A   Overcast
2:15 AM 33.3 °F 21.2 °F 25.5 °F 73% 30.20 in 10.0 mi NNW 21.9 mph 33.4 mph N/A   Overcast
2:35 AM 32.2 °F 19.4 °F 24.1 °F 72% 30.21 in 10.0 mi NNW 23.0 mph 35.7 mph N/A   Mostly Cloudy
2:55 AM 32.0 °F 19.5 °F 23.7 °F 71% 30.22 in 10.0 mi NNW 21.9 mph 28.8 mph N/A   Overcast
3:15 AM 31.8 °F 18.1 °F 24.6 °F 75% 30.22 in 10.0 mi NNW 26.5 mph 33.4 mph N/A   Overcast
3:35 AM 30.0 °F 15.7 °F 21.9 °F 72% 30.24 in 10.0 mi North 26.5 mph 33.4 mph N/A   Overcast
3:55 AM 28.9 °F 14.3 °F 20.5 °F 71% 30.25 in 10.0 mi NNW 26.5 mph 32.2 mph N/A   Overcast
4:15 AM 28.4 °F 13.5 °F 20.5 °F 72% 30.26 in 10.0 mi NNW 26.5 mph 32.2 mph N/A   Overcast
4:35 AM 28.4 °F 15.1 °F 20.3 °F 72% 30.27 in 10.0 mi NNW 20.7 mph 31.1 mph N/A   Overcast
4:55 AM 28.4 °F 14.7 °F 20.3 °F 72% 30.28 in 10.0 mi NNW 21.9 mph 27.6 mph N/A   Overcast
5:15 AM 28.0 °F 15.3 °F 20.3 °F 73% 30.30 in 10.0 mi NNW 18.4 mph 26.5 mph N/A   Overcast
5:35 AM 27.5 °F 12.0 °F 19.0 °F 71% 30.30 in 10.0 mi NNW 27.6 mph 34.5 mph N/A   Mostly Cloudy
5:55 AM 26.1 °F 11.0 °F 17.6 °F 70% 30.32 in 10.0 mi NNW 24.2 mph 29.9 mph N/A   Mostly Cloudy
6:15 AM 26.1 °F 10.4 °F 17.8 °F 71% 30.32 in 10.0 mi NNW 26.5 mph 34.5 mph N/A   Overcast
6:35 AM 26.1 °F 10.1 °F 17.6 °F 70% 30.33 in 10.0 mi NNW 27.6 mph 32.2 mph N/A   Overcast
6:55 AM 26.1 °F 11.3 °F 17.8 °F 71% 30.34 in 10.0 mi NNW 23.0 mph 29.9 mph N/A   Overcast
7:15 AM 26.1 °F 12.3 °F 18.1 °F 72% 30.36 in 10.0 mi NNW 19.6 mph 28.8 mph N/A   Overcast
7:35 AM 26.1 °F 12.7 °F 18.7 °F 74% 30.36 in 10.0 mi NNW 18.4 mph 24.2 mph N/A   Overcast
7:55 AM 26.2 °F 13.4 °F 19.0 °F 74% 30.37 in 10.0 mi NNW 17.3 mph 27.6 mph N/A   Overcast
8:15 AM 26.1 °F 12.3 °F 17.6 °F 70% 30.38 in 10.0 mi NNW 19.6 mph 31.1 mph N/A   Overcast
8:35 AM 25.7 °F 9.9 °F 16.2 °F 67% 30.38 in 10.0 mi North 26.5 mph 35.7 mph N/A   Overcast
8:55 AM 25.7 °F 10.5 °F 16.9 °F 69% 30.38 in 10.0 mi NNW 24.2 mph 33.4 mph N/A   Overcast
9:15 AM 25.7 °F 11.5 °F 17.2 °F 70% 30.39 in 10.0 mi NNW 20.7 mph 28.8 mph N/A   Overcast
9:35 AM 25.9 °F 11.7 °F 17.4 °F 70% 30.39 in 10.0 mi NNW 20.7 mph 28.8 mph N/A   Overcast
9:55 AM 26.4 °F 12.1 °F 17.6 °F 69% 30.40 in 10.0 mi NNW 21.9 mph 27.6 mph N/A   Overcast
10:15 AM 26.6 °F 12.4 °F 16.7 °F 66% 30.41 in 10.0 mi NNW 21.9 mph 27.6 mph N/A   Overcast
10:35 AM 26.6 °F 11.4 °F 16.7 °F 66% 30.42 in 10.0 mi NNW 25.3 mph 29.9 mph N/A   Overcast
10:55 AM 27.1 °F 14.5 °F 17.2 °F 66% 30.43 in 10.0 mi NNW 17.3 mph 26.5 mph N/A   Overcast
11:15 AM 26.6 °F 12.4 °F 16.5 °F 66% 30.44 in 10.0 mi NNW 21.9 mph 28.8 mph N/A   Overcast
11:35 AM 27.7 °F 14.1 °F 17.2 °F 65% 30.44 in 10.0 mi NNW 20.7 mph 28.8 mph N/A   Mostly Cloudy
11:55 AM 28.6 °F 15.3 °F 18.1 °F 65% 30.43 in 10.0 mi NNW 20.7 mph 27.6 mph N/A   Mostly Cloudy
12:15 PM 29.5 °F 18.0 °F 18.5 °F 64% 30.43 in 10.0 mi NNW 16.1 mph 23.0 mph N/A   Overcast
12:35 PM 29.7 °F 16.4 °F 18.3 °F 63% 30.41 in 10.0 mi NNW 21.9 mph 26.5 mph N/A   Mostly Cloudy
12:55 PM 30.2 °F 18.1 °F 18.1 °F 61% 30.40 in 10.0 mi NNW 18.4 mph 24.2 mph N/A   Scattered Clouds
1:15 PM 31.1 °F 18.6 °F 18.1 °F 59% 30.39 in 10.0 mi NNW 20.7 mph 26.5 mph N/A   Scattered Clouds
1:35 PM 31.8 °F 20.6 °F 19.0 °F 59% 30.39 in 10.0 mi NNW 17.3 mph 23.0 mph N/A   Clear
1:55 PM 32.2 °F 21.4 °F 19.0 °F 58% 30.39 in 10.0 mi NW 16.1 mph 23.0 mph N/A   Clear
2:15 PM 32.9 °F 23.2 °F 19.2 °F 57% 30.38 in 10.0 mi NNW 13.8 mph 21.9 mph N/A   Clear
2:35 PM 33.4 °F 22.3 °F 18.5 °F 54% 30.38 in 10.0 mi NNW 18.4 mph - N/A   Clear
2:55 PM 33.3 °F 23.2 °F 18.9 °F 56% 30.38 in 10.0 mi NNW 15.0 mph 20.7 mph N/A   Clear
3:15 PM 33.3 °F 23.7 °F 18.0 °F 53% 30.37 in 10.0 mi NNW 13.8 mph 19.6 mph N/A   Clear
3:35 PM 33.4 °F 23.9 °F 18.0 °F 53% 30.37 in 10.0 mi NNW 13.8 mph 20.7 mph N/A   Clear
3:55 PM 33.8 °F 25.3 °F 17.4 °F 51% 30.37 in 10.0 mi NNW 11.5 mph - N/A   Clear
4:15 PM 33.8 °F 24.3 °F 17.4 °F 51% 30.37 in 10.0 mi NNW 13.8 mph - N/A   Clear
4:35 PM 33.8 °F 24.8 °F 17.2 °F 51% 30.37 in 10.0 mi NW 12.7 mph - N/A   Clear
4:55 PM 33.8 °F 24.8 °F 17.8 °F 52% 30.38 in 10.0 mi NW 12.7 mph 18.4 mph N/A   Clear
5:15 PM 33.3 °F 24.6 °F 18.0 °F 53% 30.38 in 10.0 mi NNW 11.5 mph 18.4 mph N/A   Clear
5:35 PM 32.5 °F 26.2 °F 19.0 °F 58% 30.38 in 10.0 mi NNW 6.9 mph - N/A   Clear
5:55 PM 31.3 °F 24.7 °F 20.1 °F 63% 30.38 in 10.0 mi NNW 6.9 mph - N/A   Clear
6:15 PM 30.0 °F 24.1 °F 20.7 °F 68% 30.37 in 10.0 mi NNW 5.8 mph - N/A   Clear
6:35 PM 29.7 °F 23.7 °F 20.7 °F 69% 30.37 in 10.0 mi NNW 5.8 mph - N/A   Scattered Clouds
6:55 PM 31.1 °F 24.5 °F 22.1 °F 69% 30.38 in 10.0 mi North 6.9 mph - N/A   Mostly Cloudy
7:15 PM 32.0 °F 23.0 °F 20.5 °F 63% 30.38 in 10.0 mi North 11.5 mph - N/A   Overcast
7:35 PM 31.8 °F 21.8 °F 19.6 °F 61% 30.38 in 10.0 mi North 13.8 mph - N/A   Overcast
7:55 PM 31.1 °F 20.1 °F 19.2 °F 61% 30.39 in 10.0 mi North 16.1 mph - N/A   Overcast
8:15 PM 31.1 °F 19.7 °F 18.7 °F 60% 30.40 in 10.0 mi NNW 17.3 mph 21.9 mph N/A   Overcast
8:35 PM 30.9 °F 18.1 °F 18.1 °F 59% 30.41 in 10.0 mi NNW 21.9 mph - N/A   Overcast
8:55 PM 30.2 °F 17.1 °F 18.7 °F 62% 30.42 in 10.0 mi North 21.9 mph 28.8 mph N/A   Overcast
9:15 PM 29.1 °F 15.1 °F 17.2 °F 61% 30.43 in 10.0 mi North 24.2 mph 29.9 mph N/A   Overcast
9:35 PM 28.2 °F 14.8 °F 15.6 °F 59% 30.45 in 10.0 mi NNW 20.7 mph 32.2 mph N/A   Overcast
9:55 PM 27.5 °F 13.5 °F 15.8 °F 61% 30.45 in 10.0 mi NNW 21.9 mph 31.1 mph N/A   Overcast
10:15 PM 26.1 °F 10.7 °F 15.3 °F 64% 30.47 in 10.0 mi NNW 25.3 mph 32.2 mph N/A   Overcast
10:35 PM 24.8 °F 8.4 °F 14.7 °F 66% 30.48 in 10.0 mi NNW 27.6 mph 33.4 mph N/A   Overcast
10:55 PM 22.5 °F - 12.9 °F 67% 30.50 in 10.0 mi North - - N/A   Overcast
11:15 PM 21.4 °F - 11.5 °F 66% 30.51 in 10.0 mi North - - N/A   Overcast
11:35 PM 19.6 °F - 9.5 °F 65% 30.52 in 10.0 mi North - - N/A   Overcast
11:55 PM 16.2 °F - 4.6 °F 61% 30.54 in 10.0 mi North - - N/A   Mostly Cloudy